Tracking 29892 objects as of 21-Nov-2024
HD Live streaming from Space Station
objects crossing your sky now

STARLINK-3980

Track STARLINK-3980 now!
10-day predictions
STARLINK-3980 is classified as:


NORAD ID: 52611
Int'l Code: 2022-052P
Perigee: 545.9 km
Apogee: 547.9 km
Inclination: 53.2 °
Period: 95.4 minutes
Semi major axis: 6917 km
RCS: Unknown
Launch date: May 14, 2022
Source: United States (US)
Launch site: AIR FORCE EASTERN TEST RANGE (AFETR)
Your satellite tracking list
Your tracking list is empty




NASA's NSSDC Master Catalog

Two Line Element Set (TLE):
1 52611U 22052P   24325.79779590  .00002542  00000-0  17775-3 0  9998
2 52611  53.2172 251.5011 0001441  94.3154 265.8002 15.08844531139249
Source of the keplerian elements: AFSPC